{"data":{"norad_id":59564,"intl_designator":"2024-076A","name":"STARLINK-31747","alt_names":[],"object_type":"PAYLOAD","status":"ACTIVE","operator":null,"country":"US","launch_date":"2024-04-23","launch_site_code":"AFETR","launch_vehicle":null,"mission":null,"orbit_class":"UNKNOWN","rcs_meters":null,"size_class":null,"mass_kg":null,"dimensions":null,"purposes":["comms"],"wikipedia_slug":null,"has_3d_model":false,"image_url":null,"decayed_at":null,"tle_current":{"epoch":"2026-09-21T12:18:27.749088Z","epoch_age_seconds":81051,"freshness":"FRESH","line1":"1 59564U 24076A   26264.51282117 -.00000313  00000+0 -18540-5 0  9996","line2":"2 59564  43.0037 332.5123 0001120 266.5466  93.5257 15.27576423136560","mean_motion":15.27576423,"eccentricity":0.000112,"inclination_deg":43.0037,"raan_deg":332.5123,"arg_perigee_deg":266.5466,"mean_anomaly_deg":93.5257,"bstar":-1.854e-6,"rev_number":13656,"period_min":94.26696945034,"perigee_km":482.291352843,"apogee_km":483.82826092774,"semimajor_km":6861.1968068854,"source":"CELESTRAK","updated_at":"2026-09-22T09:00:48.976928Z"}}}